sat.trackr.live / text

‹ back to catalog

BRO-15

NORAD 60553 · 2024-149CP

PAYLOAD ACTIVE UNKNOWN

§ Identity

Operator
Country
FR
Launch date
2024-08-16
Launch site
AFWTR
Launch vehicle
Mass (kg)
RCS (m²)

External: N2YO · Heavens-Above · Gunter

§ Orbital elements

Epoch: 2026-09-22T16:20:42.986976Z

Period
96.23 min
Inclination
97.6725°
Eccentricity
0.0009450
Mean motion
14.96349453 rev/d
Perigee alt
571.6 km
Apogee alt
584.8 km
Semi-major
6,956.3 km
B*
7.3555e-5
RAAN
339.1904°
Arg perigee
118.0166°
Mean anomaly
242.2013°
Rev number
11,458

§ Raw data

BRO-151 60553U 24149CP  26265.68105309  .00000776  00000+0  73555-4 0  99902 60553  97.6725 339.1904 0009450 118.0166 242.2013 14.96349453114588

JSON: /api/v1/satellites/60553 · /tle

For live sub-satellite position, see the globe view (requires WebGL).

§ Visibility from observer

Set your observer location to see the next 7 days of passes ≥ 10°. The values pass through the URL so the page stays shareable.

No JS? Fill the form by hand. The geolocation button needs JavaScript.

§ Radio — SatNOGS DB

ModeDescriptionDownlinkUplink
BPSK Mode S - Transmitter 2.261 GHz
FSK AX.100 Mode 5 Mode U - FSK9k6 - Transmitter 401.820 MHz
FSK AX.100 Mode 5 Mode U - FSK4k8 - TLM (inactive) 401.735 MHz
FSK AX.100 Mode 5 Mode U - FSK9k6 - TLM (inactive) 401.735 MHz

4 transmitters · refreshed weekly from db.satnogs.org